Regional Weather Roundup
Issued by NWS

Home | Current Version | Previous Version | Text Only | Print | Product List | Glossary On
Versions: 1 2 3 4 5 6 7 8 9 10 11 12 13 14 15 16 17 18 19 20 21 22 23 24 25 26 27 28 29 30 31 32 33 34 35 36 37 38 39 40 41 42 43 44 45 46 47 48 49 50
000
ASUS43 KOAX 061702
RWRNE

WEATHER ROUNDUP FOR NEBRASKA
NATIONAL WEATHER SERVICE OMAHA NE
1200 PM CDT MON JUL 06 2015

NOTES: SATELLITE DATA IS BEING USED TO AUGMENT CLOUD COVER ABOVE
       12000 FEET.
       "FAIR" INDICATES FEW OR NO CLOUDS BELOW 12,000 FEET WITH NO
       SIGNIFICANT WEATHER AND/OR OBSTRUCTIONS TO VISIBILITY.

  * THESE STATIONS DO NOT REPORT WEATHER SUCH AS RAIN...SNOW OR FOG.

NEZ001>004-019>022-054>056-061800-
NEBRASKA PANHANDLE

CITY           SKY/WX    TMP DP  RH WIND       PRES   REMARKS
SCOTTSBLUFF    CLOUDY    63  54  72 N13G18    30.25R HAZE
ALLIANCE       PTSUNNY   64  55  72 N15G23    30.22S HAZE
CHADRON        CLOUDY    64  56  75 N12       30.25R HAZE
KIMBALL          N/A    N/A N/A N/A MISG        N/A
SIDNEY         CLOUDY    64  54  69 NE18G24   30.23R HAZE
$$

NEZ057>060-069>072-079>082-061800-
SOUTHWEST NEBRASKA

CITY           SKY/WX    TMP DP  RH WIND       PRES   REMARKS
NORTH PLATTE   CLOUDY    68  59  73 N16G24    30.12R
IMPERIAL       CLOUDY    67  56  67 N16G25    30.15R
LEXINGTON      CLOUDY    70  63  77 N14G24    30.06R
MCCOOK         CLOUDY    70  60  70 N23G30    30.07R
$$

NEZ005>010-023>029-035>040-094-061800-
NORTH CENTRAL NEBRASKA

CITY           SKY/WX    TMP DP  RH WIND       PRES   REMARKS
VALENTINE      CLOUDY    71  57  61 N17G25    30.14R HAZE
AINSWORTH        N/A     70  59  67 N21G29    30.13R HAZE
BROKEN BOW     PTSUNNY   71  61  70 N20G29    30.07R HAZE
O`NEILL          N/A     70  60  69 N15G25    30.06R HAZE
ORD            PTSUNNY   69  60  73 N21G28    30.03R HAZE
$$

NEZ041-046>049-061>064-073>077-083>087-061800-
SOUTH CENTRAL NEBRASKA

CITY           SKY/WX    TMP DP  RH WIND       PRES   REMARKS
GRAND ISLAND   CLOUDY    72  64  76 N20G25    30.00R
AURORA         CLOUDY    71  69  94 N14G21    29.98R
HASTINGS       CLOUDY    69  66  90 N17       29.99R
KEARNEY *      CLOUDY    70  63  78 N18       30.02R
$$

NEZ011>018-030>034-042>045-061800-
NORTHEAST NEBRASKA

CITY           SKY/WX    TMP DP  RH WIND       PRES   REMARKS
NORFOLK        CLOUDY    71  66  84 N15G26    29.97R
BLAIR          CLOUDY    73  70  89 W5        29.92S
FREMONT        CLOUDY    77  70  78 N6        29.93R
TEKAMAH        CLOUDY    76  71  85 NW3       29.91R
$$

NEZ050>053-065>068-078-088>093-061800-
SOUTHEAST NEBRASKA

CITY           SKY/WX    TMP DP  RH WIND       PRES   REMARKS
LINCOLN        CLOUDY    76  70  82 NE6       29.93R
OMAHA EPPLEY   CLOUDY    76  71  85 CALM      29.90R
FALLS CITY     CLOUDY    85  73  67 SW13      29.86S HX  91
$$

NEZ044-045-051>053-067-061800-
OMAHA AREA

CITY           SKY/WX    TMP DP  RH WIND       PRES   REMARKS
OMAHA EPPLEY   CLOUDY    76  71  85 CALM      29.90R
BLAIR          CLOUDY    73  70  89 W5        29.92S
FREMONT        CLOUDY    77  70  78 N6        29.93R
MILLARD        CLOUDY    75  72  88 CALM      29.91S
OFFUTT AFB     CLOUDY    76  72  87 VRB2      29.89S
$$



USA.gov is the U.S. government's official web portal to all federal, state and local government web resources and services.